EW7356 Weather Reports


Display with metric or nautical units.
time (UTC)temp
F
wind
direction
speed
MPH
gust
MPH
rain 1hr
in
rain 24hr
in
rain mn
in
humidity
%
barometer
mb
20260902082531 59 0 0.0 1.0 0.00 0.35 0.01 97 1020.8
20260902082030 59 0 0.0 1.0 0.00 0.35 0.01 97 1020.8
20260902081545 59 0 0.0 1.0 0.00 0.35 0.01 97 1020.7
20260902081028 59 0 0.0 1.0 0.00 0.35 0.01 97 1020.7
20260902080528 59 0 0.0 1.0 0.00 0.35 0.01 97 1020.8
20260902080052 59 0 0.0 1.0 0.00 0.35 0.01 97 1020.8
20260902075530 59 0 0.0 2.0 0.00 0.35 0.01 97 1020.9
20260902075030 59 0 0.0 2.0 0.00 0.35 0.01 97 1021.1
20260902074605 59 0 0.0 1.0 0.00 0.35 0.01 97 1021.0
20260902074028 59 0 0.0 1.0 0.00 0.35 0.01 97 1021.0
20260902073528 59 0 0.0 1.0 0.00 0.35 0.01 97 1021.0
20260902073044 59 0 0.0 1.0 0.00 0.35 0.01 97 1021.0
20260902072529 59 0 0.0 1.0 0.00 0.35 0.01 97 1021.0
20260902072029 59 0 0.0 3.0 0.00 0.35 0.01 97 1021.0
20260902071554 59 0 0.0 4.0 0.00 0.35 0.01 97 1021.0
20260902071031 59 0 0.0 4.0 0.00 0.35 0.01 97 1021.1
20260902070534 59 161 0.0 1.0 0.00 0.35 0.01 97 1021.1
20260902070043 59 0 0.0 1.0 0.00 0.35 0.01 97 1021.0
20260902065529 59 0 0.0 1.0 0.00 0.35 0.01 97 1021.1
20260902065027 59 0 0.0 1.0 0.00 0.35 0.01 97 1021.0
20260902064550 59 0 0.0 1.0 0.00 0.35 0.01 97 1020.8
20260902064030 59 0 0.0 0.0 0.00 0.35 0.01 97 1020.7
20260902063529 59 0 0.0 1.0 0.00 0.35 0.01 97 1020.7
20260902063103 59 0 0.0 1.0 0.00 0.35 0.01 97 1020.7
20260902062528 59 0 0.0 1.0 0.00 0.35 0.01 97 1020.7
20260902062028 59 0 0.0 1.0 0.00 0.35 0.01 97 1020.6
20260902061545 59 0 0.0 1.0 0.00 0.35 0.01 97 1020.6
20260902061032 59 0 0.0 1.0 0.00 0.35 0.01 97 1020.6
20260902060530 59 0 0.0 1.0 0.00 0.35 0.01 97 1020.6
20260902060056 59 0 0.0 1.0 0.00 0.35 0.01 97 1020.6
20260902055531 59 0 0.0 1.0 0.00 0.35 0.01 97 1020.6
20260902055028 59 0 0.0 1.0 0.00 0.35 0.01 97 1020.6
20260902054545 59 0 0.0 0.0 0.00 0.35 0.01 97 1020.5
20260902054030 59 0 0.0 0.0 0.00 0.35 0.01 97 1020.5
20260902053529 59 0 0.0 0.0 0.00 0.35 0.01 97 1020.4
20260902053049 59 0 0.0 0.0 0.01 0.35 0.01 97 1020.4
20260902052531 59 0 0.0 1.0 0.01 0.35 0.01 97 1020.3
20260902052029 59 0 0.0 1.0 0.01 0.35 0.01 97 1020.3
20260902051550 59 0 0.0 1.0 0.01 0.35 0.01 97 1020.3
20260902051030 59 161 0.0 1.0 0.01 0.35 0.01 97 1020.1
20260902050531 59 0 0.0 0.0 0.01 0.35 0.01 97 1020.2
20260902050043 59 0 0.0 0.0 0.01 0.35 0.01 97 1020.2
20260902045531 59 0 0.0 0.0 0.01 0.35 0.01 97 1020.2
20260902045030 59 0 0.0 1.0 0.01 0.35 0.01 97 1020.2
20260902044553 59 0 0.0 1.0 0.01 0.35 0.01 97 1020.0
20260902044031 59 0 0.0 1.0 0.01 0.35 0.01 97 1020.0
20260902043530 59 0 0.0 1.0 0.01 0.35 0.01 97 1020.0
20260902043107 59 0 0.0 0.0 0.00 0.34 0.00 97 1019.9
20260902042530 59 0 0.0 0.0 0.00 0.34 0.00 97 1019.8
20260902042030 59 0 0.0 0.0 0.00 0.34 0.00 97 1019.7
20260902041602 59 0 0.0 0.0 0.00 0.34 0.00 97 1019.7
20260902041030 59 0 0.0 1.0 0.00 0.34 0.00 97 1019.6
20260902040529 59 0 0.0 1.0 0.00 0.34 0.00 97 1019.6
20260902040043 59 0 0.0 1.0 0.00 0.34 0.00 97 1019.7
20260902035534 59 0 0.0 1.0 0.00 0.34 0.34 96 1019.6
20260902035031 59 0 0.0 1.0 0.00 0.34 0.34 96 1019.6
20260902034549 59 0 0.0 1.0 0.00 0.34 0.34 96 1019.7
20260902034029 59 0 0.0 1.0 0.00 0.34 0.34 96 1019.7
20260902033528 59 0 0.0 1.0 0.00 0.34 0.34 96 1019.7
20260902033049 59 0 0.0 1.0 0.00 0.34 0.34 96 1019.7
20260902032529 59 0 0.0 2.0 0.00 0.34 0.34 96 1019.6
20260902032032 59 0 0.0 2.0 0.00 0.34 0.34 96 1019.5
20260902031549 59 0 0.0 2.0 0.00 0.34 0.34 96 1019.5
20260902031027 59 161 0.0 2.0 0.00 0.34 0.34 96 1019.4
20260902030530 60 0 0.0 3.0 0.00 0.34 0.34 96 1019.4
20260902030046 60 138 0.0 5.0 0.00 0.34 0.34 96 1019.4
20260902025530 60 142 0.0 5.0 0.00 0.34 0.34 96 1019.3
20260902025030 60 151 0.0 3.0 0.00 0.34 0.34 96 1019.4
20260902024553 60 153 1.0 3.0 0.01 0.34 0.34 96 1019.5
20260902024029 60 155 0.0 2.0 0.01 0.34 0.34 96 1019.3
20260902023530 60 0 0.0 3.0 0.01 0.34 0.34 96 1019.4
20260902023052 60 159 0.0 3.0 0.01 0.34 0.34 96 1019.2
20260902022531 60 0 0.0 5.0 0.01 0.34 0.34 96 1019.3
20260902022031 60 183 0.0 6.0 0.01 0.34 0.34 96 1019.4
20260902021552 60 0 1.0 6.0 0.01 0.34 0.34 96 1019.3
20260902021030 60 139 1.0 6.0 0.01 0.34 0.34 96 1019.3
20260902020533 60 159 0.0 6.0 0.01 0.34 0.34 96 1019.2
20260902020046 60 158 0.0 4.0 0.01 0.34 0.34 96 1019.2
20260902015530 60 182 1.0 5.0 0.01 0.34 0.34 96 1019.2
20260902015030 60 169 1.0 5.0 0.01 0.34 0.34 96 1019.4
20260902014551 60 0 1.0 3.0 0.00 0.33 0.33 96 1019.4
20260902014030 60 0 0.0 3.0 0.00 0.33 0.33 96 1019.4
20260902013530 60 153 0.0 3.0 0.00 0.33 0.33 96 1019.5
20260902013051 60 179 0.0 2.0 0.00 0.33 0.33 96 1019.4
20260902012533 60 0 0.0 2.0 0.00 0.33 0.33 96 1019.5
20260902012029 60 178 0.0 1.0 0.00 0.33 0.33 96 1019.4
20260902011552 60 0 0.0 5.0 0.01 0.33 0.33 96 1019.4
20260902011031 60 0 0.0 5.0 0.01 0.33 0.33 96 1019.5
20260902010530 60 0 1.0 2.0 0.01 0.33 0.33 96 1019.4
20260902010051 60 96 0.0 2.0 0.01 0.33 0.33 96 1019.4
20260902005530 60 0 0.0 2.0 0.01 0.33 0.33 96 1019.4
20260902005031 60 0 0.0 2.0 0.01 0.33 0.33 96 1019.3
20260902004544 60 0 0.0 2.0 0.01 0.33 0.33 96 1019.3
20260902004033 60 0 0.0 3.0 0.02 0.33 0.33 96 1019.3
20260902003529 60 0 0.0 4.0 0.02 0.33 0.33 96 1019.1
20260902003120 60 178 1.0 4.0 0.02 0.33 0.33 95 1019.0
20260902002527 60 178 0.0 4.0 0.03 0.33 0.33 95 1019.0
20260902002031 60 0 0.0 5.0 0.03 0.33 0.33 95 1018.9
20260902001539 60 151 1.0 6.0 0.02 0.32 0.32 95 1018.9
20260902001027 61 157 1.0 6.0 0.02 0.32 0.32 95 1018.8
20260902000532 61 143 1.0 7.0 0.02 0.32 0.32 95 1018.7
20260902000038 61 166 0.0 7.0 0.02 0.32 0.32 95 1018.6
20260901235530 61 163 1.0 6.0 0.02 0.32 0.32 95 1018.4
20260901235029 61 178 0.0 6.0 0.02 0.32 0.32 95 1018.4
20260901234544 61 154 0.0 4.0 0.02 0.32 0.32 95 1018.5
20260901234028 62 149 1.0 4.0 0.01 0.31 0.31 95 1018.3
20260901233532 62 0 0.0 2.0 0.01 0.31 0.31 95 1018.4
20260901233043 62 0 0.0 4.0 0.01 0.31 0.31 95 1018.4
20260901232530 62 164 0.0 4.0 0.00 0.30 0.30 94 1018.4
20260901232030 62 0 0.0 3.0 0.00 0.30 0.30 94 1018.5
20260901231600 62 0 0.0 3.0 0.00 0.30 0.30 94 1018.4
20260901231034 62 154 1.0 3.0 0.00 0.30 0.30 94 1018.3
20260901230529 62 0 0.0 2.0 0.00 0.30 0.30 94 1018.2
20260901230050 62 0 0.0 2.0 0.00 0.30 0.30 94 1018.3
20260901225532 62 0 0.0 1.0 0.00 0.30 0.30 94 1018.3
20260901225029 62 0 0.0 1.0 0.00 0.30 0.30 94 1018.4
20260901224550 62 0 0.0 1.0 0.00 0.30 0.30 93 1018.3
20260901224030 62 0 0.0 2.0 0.00 0.30 0.30 93 1018.5
20260901223529 62 0 0.0 2.0 0.00 0.30 0.30 93 1018.5
20260901223042 62 0 0.0 1.0 0.00 0.30 0.30 93 1018.5
20260901222531 63 0 0.0 2.0 0.00 0.30 0.30 93 1018.4
20260901222032 63 0 0.0 2.0 0.00 0.30 0.30 92 1018.5
20260901221545 63 0 0.0 2.0 0.00 0.30 0.30 92 1018.4
20260901221030 63 0 0.0 2.0 0.00 0.30 0.30 93 1018.3
20260901220530 63 0 0.0 2.0 0.00 0.30 0.30 92 1018.3
20260901220050 63 0 0.0 2.0 0.00 0.30 0.30 92 1018.3
20260901215527 63 209 0.0 2.0 0.00 0.30 0.30 92 1018.3
20260901215029 63 186 0.0 2.0 0.00 0.30 0.30 92 1018.1
20260901214551 63 0 0.0 2.0 0.00 0.30 0.30 92 1018.1
20260901214031 63 148 0.0 2.0 0.00 0.30 0.30 92 1018.1
20260901213530 63 182 0.0 3.0 0.00 0.30 0.30 92 1017.9
20260901213046 63 0 1.0 4.0 0.00 0.30 0.30 92 1018.1
20260901212530 63 168 1.0 4.0 0.00 0.30 0.30 91 1018.0
20260901212032 63 153 0.0 6.0 0.00 0.30 0.30 91 1018.0
20260901211543 63 183 2.0 6.0 0.00 0.30 0.30 91 1018.0
20260901211029 63 157 1.0 7.0 0.00 0.30 0.30 91 1018.1
20260901210531 63 165 2.0 7.0 0.00 0.30 0.30 90 1018.1
20260901210113 63 180 2.0 6.0 0.00 0.30 0.30 90 1018.0
20260901205530 64 0 2.0 8.0 0.00 0.30 0.30 90 1018.0
20260901205033 64 146 2.0 8.0 0.00 0.30 0.30 90 1017.9
20260901204548 64 171 3.0 8.0 0.00 0.30 0.30 90 1017.8
20260901204027 64 156 3.0 6.0 0.00 0.30 0.30 90 1017.6
20260901203527 64 165 2.0 5.0 0.00 0.30 0.30 91 1017.7
20260901203045 64 163 1.0 4.0 0.00 0.30 0.30 91 1017.6
20260901202530 64 178 1.0 3.0 0.00 0.30 0.30 90 1017.6
20260901202030 64 178 1.0 4.0 0.00 0.30 0.30 91 1017.8
20260901201543 64 211 0.0 4.0 0.00 0.30 0.30 90 1017.8
20260901201031 64 0 1.0 4.0 0.00 0.30 0.30 89 1017.7
20260901200529 64 184 0.0 3.0 0.00 0.30 0.30 90 1017.7
20260901200049 64 184 0.0 3.0 0.00 0.30 0.30 90 1017.5
20260901195530 64 180 0.0 3.0 0.00 0.30 0.30 90 1017.6
20260901195032 64 186 0.0 3.0 0.00 0.30 0.30 90 1017.6
20260901194547 64 0 0.0 4.0 0.00 0.30 0.30 91 1017.6
20260901194038 63 160 1.0 4.0 0.00 0.30 0.30 91 1017.7
20260901193531 63 173 1.0 3.0 0.00 0.30 0.30 91 1017.7
20260901193053 63 173 0.0 2.0 0.00 0.30 0.30 91 1017.7
20260901192527 63 173 0.0 2.0 0.00 0.30 0.30 91 1017.7
20260901192027 63 0 0.0 2.0 0.00 0.30 0.30 91 1017.8
20260901191548 63 0 0.0 2.0 0.00 0.30 0.30 92 1017.7
20260901191028 62 173 0.0 3.0 0.00 0.30 0.30 91 1017.8
20260901190533 63 173 0.0 5.0 0.00 0.30 0.30 90 1017.9
20260901190055 63 173 1.0 5.0 0.00 0.30 0.30 89 1017.9
20260901185528 63 172 1.0 4.0 0.00 0.30 0.30 90 1017.9
20260901185028 63 173 1.0 2.0 0.00 0.30 0.30 90 1017.9
20260901184542 63 181 0.0 3.0 0.00 0.30 0.30 91 1017.9
20260901184028 63 0 0.0 3.0 0.00 0.30 0.30 90 1017.9
20260901183528 63 189 0.0 3.0 0.00 0.30 0.30 89 1018.0
20260901183050 63 0 1.0 3.0 0.00 0.30 0.30 90 1017.8
20260901182528 63 176 0.0 3.0 0.00 0.30 0.30 90 1017.8
20260901182030 63 0 0.0 5.0 0.00 0.30 0.30 89 1017.9
20260901181543 63 0 1.0 5.0 0.00 0.30 0.30 88 1018.0
20260901181029 64 192 1.0 5.0 0.00 0.30 0.30 88 1017.9
20260901180531 64 176 1.0 3.0 0.00 0.30 0.30 86 1017.8
20260901180049 64 0 0.0 2.0 0.00 0.30 0.30 87 1017.8
20260901175531 64 351 0.0 1.0 0.00 0.30 0.30 86 1017.7
20260901175029 63 0 0.0 3.0 0.00 0.30 0.30 85 1017.8
20260901174554 63 0 0.0 3.0 0.00 0.30 0.30 85 1017.7
20260901174028 63 331 1.0 3.0 0.00 0.30 0.30 86 1017.7
20260901173531 63 0 0.0 3.0 0.00 0.30 0.30 90 1017.6
20260901173042 62 109 0.0 3.0 0.00 0.30 0.30 88 1017.6
20260901172530 62 0 0.0 3.0 0.00 0.30 0.30 89 1017.5
20260901172030 62 0 0.0 3.0 0.00 0.30 0.30 90 1017.6
20260901171545 62 0 0.0 2.0 0.00 0.30 0.30 89 1017.7
20260901171030 61 296 0.0 3.0 0.00 0.30 0.30 90 1017.7
20260901170528 62 225 1.0 3.0 0.00 0.30 0.30 90 1017.6
20260901170058 62 245 1.0 4.0 0.00 0.30 0.30 90 1017.6
20260901165533 62 0 0.0 4.0 0.00 0.30 0.30 91 1017.6
20260901165027 62 61 0.0 3.0 0.00 0.30 0.30 91 1017.5
20260901164552 61 11 0.0 2.0 0.00 0.30 0.30 92 1017.5
20260901164030 61 0 0.0 2.0 0.00 0.30 0.30 93 1017.3
20260901163530 61 0 0.0 2.0 0.00 0.30 0.30 93 1017.4
20260901163103 61 0 0.0 2.0 0.00 0.30 0.30 93 1017.6
20260901162530 60 0 0.0 2.0 0.00 0.30 0.30 94 1017.6
20260901162029 60 0 0.0 2.0 0.00 0.30 0.30 93 1017.7
20260901161550 60 0 0.0 2.0 0.00 0.30 0.30 93 1017.7
20260901161030 60 0 0.0 2.0 0.00 0.30 0.30 93 1017.9
20260901160529 60 0 0.0 1.0 0.00 0.30 0.30 93 1017.9
20260901160042 60 0 0.0 2.0 0.00 0.30 0.30 94 1017.8
20260901155528 60 0 0.0 2.0 0.00 0.30 0.30 93 1018.0
20260901155029 60 0 0.0 3.0 0.00 0.30 0.30 93 1018.1
20260901154553 60 0 0.0 3.0 0.00 0.30 0.30 93 1018.2
20260901154027 60 146 0.0 2.0 0.00 0.30 0.30 94 1018.2
20260901153530 60 0 0.0 1.0 0.00 0.30 0.30 95 1018.2
20260901153052 60 0 0.0 1.0 0.00 0.30 0.30 95 1018.2
20260901152531 59 0 0.0 1.0 0.00 0.30 0.30 94 1018.2
20260901152029 59 0 0.0 1.0 0.00 0.30 0.30 94 1018.3
20260901151542 59 0 0.0 0.0 0.00 0.30 0.30 94 1018.3
20260901151030 59 0 0.0 0.0 0.00 0.30 0.30 93 1018.2
20260901150528 59 0 0.0 0.0 0.00 0.30 0.30 94 1018.0
20260901150052 59 0 0.0 0.0 0.00 0.30 0.30 94 1018.0
20260901145529 59 0 0.0 3.0 0.00 0.30 0.30 94 1017.8
20260901145029 59 0 0.0 4.0 0.00 0.30 0.30 94 1017.8
20260901144543 59 0 1.0 4.0 0.00 0.30 0.30 94 1017.7
20260901144034 59 173 0.0 4.0 0.00 0.30 0.30 94 1017.6
20260901143529 59 175 0.0 2.0 0.00 0.30 0.30 94 1017.6
20260901143052 59 187 0.0 2.0 0.00 0.30 0.30 94 1017.7
20260901142530 59 187 0.0 3.0 0.00 0.30 0.30 93 1017.8
20260901142029 59 0 0.0 3.0 0.01 0.30 0.30 94 1017.8
20260901141546 59 186 0.0 2.0 0.01 0.30 0.30 93 1017.8
20260901141029 59 0 0.0 3.0 0.02 0.30 0.30 93 1017.6
20260901140528 59 214 0.0 3.0 0.02 0.30 0.30 95 1017.6
20260901140055 59 47 0.0 3.0 0.03 0.30 0.30 95 1017.6
20260901135528 59 163 0.0 2.0 0.04 0.30 0.30 95 1017.6
20260901135031 58 0 0.0 2.0 0.04 0.30 0.30 95 1017.7
20260901134559 58 20 0.0 2.0 0.05 0.30 0.30 95 1017.8
20260901134028 58 0 0.0 3.0 0.05 0.30 0.30 95 1017.8
20260901133527 58 23 1.0 3.0 0.06 0.30 0.30 95 1018.0
20260901133100 58 25 0.0 3.0 0.07 0.30 0.30 95 1017.9
20260901132527 58 0 0.0 3.0 0.09 0.30 0.30 95 1017.7
20260901132031 58 0 1.0 3.0 0.10 0.29 0.29 96 1017.8
20260901131547 57 0 0.0 3.0 0.11 0.28 0.28 95 1018.0
20260901131030 57 0 1.0 3.0 0.13 0.28 0.28 95 1018.2
20260901130530 57 19 0.0 2.0 0.14 0.28 0.28 95 1018.1
20260901130049 57 0 0.0 1.0 0.14 0.27 0.27 95 1018.0
20260901125527 57 0 0.0 1.0 0.13 0.26 0.26 95 1018.0
20260901125028 57 0 0.0 0.0 0.14 0.26 0.26 95 1018.2
20260901124546 57 0 0.0 1.0 0.14 0.25 0.25 95 1018.2
20260901124026 57 0 0.0 1.0 0.14 0.25 0.25 94 1018.1
20260901123530 57 0 0.0 1.0 0.14 0.24 0.24 94 1018.3
20260901123042 57 0 0.0 1.0 0.14 0.23 0.23 94 1018.4
20260901122529 57 0 0.0 1.0 0.13 0.21 0.21 94 1018.2
20260901122030 57 19 0.0 1.0 0.13 0.19 0.19 94 1018.4
20260901121553 58 0 0.0 1.0 0.12 0.17 0.17 94 1018.5
20260901121028 58 0 0.0 1.0 0.12 0.15 0.15 94 1018.6
20260901120532 58 0 0.0 1.0 0.12 0.14 0.14 94 1018.4
20260901120044 58 0 0.0 1.0 0.13 0.13 0.13 94 1018.5
20260901115530 58 0 0.0 1.0 0.12 0.12 0.12 93 1018.5
20260901115030 58 0 0.0 0.0 0.12 0.12 0.12 93 1018.6
20260901114552 58 0 0.0 0.0 0.11 0.11 0.11 93 1018.5
20260901114029 58 0 0.0 1.0 0.11 0.11 0.11 93 1018.5
20260901113530 58 0 0.0 1.0 0.10 0.10 0.10 92 1018.4
20260901113050 59 0 0.0 1.0 0.09 0.09 0.09 92 1018.4
20260901112531 59 0 0.0 1.0 0.08 0.08 0.08 92 1018.3
20260901112031 59 0 0.0 1.0 0.06 0.06 0.06 92 1018.3
20260901111548 59 0 0.0 1.0 0.05 0.05 0.05 92 1018.1
20260901111028 59 0 0.0 1.0 0.03 0.03 0.03 91 1018.1
20260901110530 59 0 0.0 0.0 0.02 0.02 0.02 90 1017.9
20260901110048 59 0 0.0 0.0 0.00 0.00 0.00 90 1017.8
20260901105530 59 0 0.0 1.0 0.00 0.00 0.00 89 1017.8
20260901105033 59 0 0.0 1.0 0.00 0.00 0.00 89 1017.6
20260901104550 59 0 0.0 1.0 0.00 0.00 0.00 88 1017.7
20260901104031 59 0 0.0 1.0 0.00 0.00 0.00 88 1017.6
20260901103530 60 0 0.0 1.0 0.00 0.00 0.00 88 1017.5
20260901103051 60 0 0.0 2.0 0.00 0.00 0.00 88 1017.4
20260901102530 60 0 0.0 2.0 0.00 0.00 0.00 88 1017.3
20260901102031 60 19 0.0 1.0 0.00 0.00 0.00 88 1017.4
20260901101549 60 0 0.0 1.0 0.00 0.00 0.00 88 1017.3
20260901101030 60 0 0.0 1.0 0.00 0.00 0.00 89 1017.2
20260901100533 60 0 0.0 1.0 0.00 0.00 0.00 88 1017.3
20260901100051 60 0 0.0 1.0 0.00 0.00 0.00 88 1017.3
20260901095530 60 0 0.0 3.0 0.00 0.00 0.00 88 1017.3
20260901095030 60 0 1.0 3.0 0.00 0.00 0.00 89 1017.4
20260901094549 60 35 0.0 2.0 0.00 0.00 0.00 89 1017.3
20260901094029 60 0 0.0 0.0 0.00 0.00 0.00 89 1017.0
20260901093531 60 0 0.0 0.0 0.00 0.00 0.00 90 1016.9
20260901093057 60 0 0.0 0.0 0.00 0.00 0.00 89 1017.1
20260901092530 60 0 0.0 1.0 0.00 0.00 0.00 90 1017.1
20260901092030 60 0 0.0 2.0 0.00 0.00 0.00 90 1017.0
20260901091556 60 0 0.0 2.0 0.00 0.00 0.00 89 1017.2
20260901091030 60 43 0.0 2.0 0.00 0.00 0.00 89 1017.1
20260901090529 60 0 0.0 1.0 0.00 0.00 0.00 90 1017.2
20260901090053 60 0 0.0 1.0 0.00 0.00 0.00 90 1017.2
20260901085530 60 0 0.0 1.0 0.00 0.00 0.00 90 1017.2
20260901085033 60 0 0.0 1.0 0.00 0.00 0.00 90 1017.1
20260901084551 60 0 0.0 1.0 0.00 0.00 0.00 91 1017.1
20260901084030 60 0 0.0 1.0 0.00 0.00 0.00 91 1017.2
20260901083531 60 43 0.0 1.0 0.00 0.00 0.00 91 1017.3
20260901083048 60 0 0.0 1.0 0.00 0.00 0.00 92 1017.4